Hourly Data Report for July 04, 2021

BANCROFT AUTO
ONTARIO
Current Station Operator: ECCC - MSC

45°04'17.000" N
77°52'44.000" W
330.70 m
616I001
71294
WRK

Download Data

Hourly Data (July 2021)
Hourly Data Report for July 4, 2021
TIME
LST
Temp Definition
°C
Dew Point Definition
°C
Rel Hum Definition
%
Precip. Amount Definition
mm

Wind Dir Definition
10's deg

Wind Spd Definition
km/h
Visibility Definition
km
Stn Press Definition
kPa
Hmdx Definition


Wind Chill Definition


Weather Definition


00:00 14.9 14.5 98 0.0 11 3   97.33     LegendNANA
01:00 15.3 14.9 98 0.0   0   97.32     LegendNANA
02:00 15.5 15.1 98 0.0 11 5   97.31     LegendNANA
03:00 14.9 14.4 97 0.0 0 1   97.34     LegendNANA
04:00 14.4 14.0 97 0.0 13 1   97.37     LegendNANA
05:00 13.3 12.8 97 0.0 0 1   97.41     LegendNANA
06:00 13.7 13.4 98 0.0 0 1   97.47     LegendNANA
07:00 14.7 13.1 90 0.0 33 2   97.51     LegendNANA
08:00 17.4 13.6 78 0.0 7 2   97.53     LegendNANA
09:00 19.2 13.3 68 0.0 10 4   97.53     LegendNANA
10:00 20.5 11.5 56 0.0 5 6   97.55     LegendNANA
11:00 21.3 9.5 47 0.0 9 5   97.54     LegendNANA
12:00 22.3 9.4 44 0.0 6 10   97.53     LegendNANA
13:00 23.4 10.1 43 0.0 18 5   97.52 25   LegendNANA
14:00 23.6 9.6 41 0.0 31 3   97.52 25   LegendNANA
15:00 24.5 10.9 42 0.0 21 5   97.50 26   LegendNANA
16:00 24.6 10.6 41 0.0 30 6   97.49 26   LegendNANA
17:00 24.6 10.6 41 0.0 28 3   97.48 26   LegendNANA
18:00 24.3 11.4 44 0.0 21 3   97.52 26   LegendNANA
19:00 20.7 14.6 68 0.0 20 3   97.55     LegendNANA
20:00 17.5 14.4 82 0.0 0 1   97.54     LegendNANA
21:00 15.7 14.3 92 0.0 31 3   97.58     LegendNANA
22:00 14.6 13.8 95 0.0   0   97.60     LegendNANA
23:00 14.4 13.6 95 0.0   0   97.65     LegendNANA

Notes on Data Quality.

Legend

  • E = Estimated
  • M = Missing
  • NA = Not Available*
  • [empty] = Indicates an unobserved value
Date modified: